R2334 LTAY-DAUB

Flight info

Callsign R2334
Flight time N/A
Altitude 36000
Route BALSU UN135 IMR UT54 SITRU UR20 KEA DCT BERAP UA145 LORNO DCT INROF DCT OLLEK DCT BASMO UM980 TBS UG864 RADJA
Aircraft B77L/H-SDE1E2E3FGHIJ2J3J4J5M1RWXY/LB1D1

Departure

Time 2026-04-18 07:31
Airport Çardak Airport (LTAY)

Arrival

Time N/A
Airport Biskra - Mohamed Khider Airport (DAUB)
Time Latitude Longitude Altitude Speed Heading
2026-04-18 07:16 37.77491 29.68908 2815 ft 0 kts 59°
2026-04-18 07:21 37.77492 29.68910 2815 ft 0 kts 59°
2026-04-18 07:22 37.77497 29.68922 2815 ft 6 kts 59°
2026-04-18 07:22 37.77506 29.68934 2815 ft 0 kts 40°
2026-04-18 07:22 37.77508 29.68936 2815 ft 3 kts 37°
2026-04-18 07:23 37.77554 29.68918 2815 ft 14 kts 334°
2026-04-18 07:23 37.77671 29.68831 2814 ft 21 kts 328°
2026-04-18 07:23 37.77721 29.68791 2814 ft 0 kts 328°
2026-04-18 07:23 37.77731 29.68784 2814 ft 4 kts 329°
2026-04-18 07:24 37.77788 29.68741 2814 ft 14 kts 329°
2026-04-18 07:24 37.77883 29.68669 2813 ft 15 kts 330°
2026-04-18 07:24 37.77963 29.68609 2813 ft 7 kts 327°
2026-04-18 07:24 37.78002 29.68609 2813 ft 5 kts 46°
2026-04-18 07:25 37.78024 29.68654 2813 ft 6 kts 59°
2026-04-18 07:25 37.78047 29.68703 2813 ft 6 kts 59°
2026-04-18 07:25 37.78078 29.68766 2812 ft 9 kts 59°
2026-04-18 07:25 37.78122 29.68859 2811 ft 14 kts 59°
2026-04-18 07:26 37.78188 29.68999 2810 ft 22 kts 59°
2026-04-18 07:26 37.78283 29.69195 2808 ft 29 kts 59°
2026-04-18 07:26 37.78399 29.69442 2805 ft 36 kts 58°
2026-04-18 07:26 37.78534 29.69721 2803 ft 36 kts 59°
2026-04-18 07:27 37.78660 29.69987 2802 ft 34 kts 59°
2026-04-18 07:27 37.78777 29.70233 2800 ft 32 kts 59°
2026-04-18 07:27 37.78889 29.70468 2799 ft 30 kts 59°
2026-04-18 07:27 37.78993 29.70689 2798 ft 28 kts 59°
2026-04-18 07:28 37.79092 29.70895 2796 ft 26 kts 60°
2026-04-18 07:28 37.79185 29.71089 2795 ft 25 kts 59°
2026-04-18 07:28 37.79272 29.71273 2794 ft 23 kts 59°
2026-04-18 07:28 37.79340 29.71417 2793 ft 6 kts 59°
2026-04-18 07:29 37.79360 29.71465 2793 ft 5 kts 77°
2026-04-18 07:29 37.79355 29.71487 2793 ft 0 kts 134°
2026-04-18 07:29 37.79349 29.71493 2793 ft 2 kts 135°
2026-04-18 07:29 37.79319 29.71524 2793 ft 8 kts 146°
2026-04-18 07:30 37.79257 29.71562 2793 ft 8 kts 184°
2026-04-18 07:30 37.79214 29.71510 2793 ft 8 kts 236°
2026-04-18 07:30 37.79185 29.71454 2794 ft 7 kts 237°
2026-04-18 07:30 37.79111 29.71295 2794 ft 49 kts 240°
2026-04-18 07:31 37.78830 29.70700 2799 ft 109 kts 240°
2026-04-18 07:31 37.78340 29.69670 2813 ft 159 kts 240°
2026-04-18 07:31 37.77782 29.68462 3306 ft 159 kts 241°
2026-04-18 07:31 37.77207 29.67243 3758 ft 170 kts 239°
2026-04-18 07:32 37.76546 29.65916 4126 ft 186 kts 239°
2026-04-18 07:32 37.75852 29.64480 4477 ft 203 kts 239°
2026-04-18 07:32 37.75097 29.62927 4976 ft 212 kts 234°
2026-04-18 07:32 37.73995 29.61667 5531 ft 218 kts 208°
2026-04-18 07:33 37.72516 29.61067 5861 ft 236 kts 189°
2026-04-18 07:33 37.70828 29.60745 6234 ft 254 kts 187°
2026-04-18 07:33 37.69008 29.60407 6652 ft 272 kts 188°
2026-04-18 07:33 37.67101 29.60039 7296 ft 281 kts 188°
2026-04-18 07:34 37.65154 29.59657 7990 ft 286 kts 189°
2026-04-18 07:34 37.63219 29.59123 8688 ft 290 kts 204°
2026-04-18 07:34 37.61494 29.57835 9365 ft 293 kts 217°
2026-04-18 07:34 37.59862 29.56253 10081 ft 296 kts 220°
2026-04-18 07:35 37.58235 29.54625 10533 ft 310 kts 219°
2026-04-18 07:35 37.56488 29.52886 10915 ft 327 kts 219°
2026-04-18 07:35 37.54657 29.51069 11293 ft 345 kts 220°
2026-04-18 07:35 37.52892 29.48970 11717 ft 361 kts 230°
2026-04-18 07:36 37.51354 29.46381 12163 ft 376 kts 240°
2026-04-18 07:36 37.50174 29.43398 12659 ft 391 kts 251°
2026-04-18 07:36 37.49434 29.40056 13318 ft 400 kts 262°
2026-04-18 07:36 37.49228 29.36566 14223 ft 404 kts 273°
2026-04-18 07:37 37.49556 29.33098 15164 ft 408 kts 283°
2026-04-18 07:37 37.50423 29.29696 16123 ft 412 kts 294°
2026-04-18 07:37 37.51616 29.26436 17046 ft 417 kts 297°
2026-04-18 07:37 37.52855 29.23140 17949 ft 423 kts 297°
2026-04-18 07:38 37.54116 29.19765 18848 ft 428 kts 297°
2026-04-18 07:38 37.55380 29.16359 19779 ft 433 kts 297°
2026-04-18 07:38 37.56639 29.12952 20706 ft 436 kts 297°
2026-04-18 07:38 37.57918 29.09477 21564 ft 441 kts 297°
2026-04-18 07:39 37.59200 29.05986 22376 ft 446 kts 297°
2026-04-18 07:39 37.60507 29.02418 23155 ft 451 kts 297°
2026-04-18 07:39 37.61826 28.98811 23963 ft 455 kts 297°
2026-04-18 07:39 37.63138 28.95216 24745 ft 459 kts 297°
2026-04-18 07:40 37.64480 28.91532 25517 ft 463 kts 298°
2026-04-18 07:40 37.65823 28.87842 26265 ft 467 kts 298°
2026-04-18 07:40 37.67180 28.84106 26996 ft 471 kts 298°
2026-04-18 07:40 37.68527 28.80397 27723 ft 475 kts 298°
2026-04-18 07:41 37.69910 28.76579 28472 ft 479 kts 298°
2026-04-18 07:41 37.71291 28.72761 29401 ft 479 kts 298°
2026-04-18 07:41 37.72662 28.68959 30406 ft 477 kts 298°
2026-04-18 07:41 37.73997 28.65208 31376 ft 473 kts 297°
2026-04-18 07:42 37.75328 28.61450 32400 ft 466 kts 297°
2026-04-18 07:42 37.76644 28.57735 33352 ft 461 kts 297°
2026-04-18 07:42 37.77925 28.54115 34183 ft 457 kts 297°